Temp
20 21 21 20 21 22 23 23 22 21 20 20 19 19 20 20 19 19 19 19 19 19 19 19 19 19 19 19 18 18 18 18 18 18 18 18 18 18 18 18 18 18 18 18 18 18 18 18 18 18 18 18 17 17 17 17 17 17 17 17 17 17 17 17 17 18 18 18 18 17 17 17 17 17 17 17 17 17 17 17 17 17 17 17 18
20 21 21 20 21 22 23 22 21 21 20 19 19 19 19 19 19 19 19 19 19 19 19 19 19 19 19 19 18 18 18 18 18 18 18 18 18 18 18 18 18 18 18 18 18 18 18 18 18 18 17 17 17 17 17 17 17 17 17 17 17 17 16 17 17 17 17 18 18 17 17 17 17 17 17 17 17 17 17 17 17 17 17 17 17
20 21 21 20 21 22 23 22 21 20 19 19 19 18 18 18 19 19 19 19 19 19 19 19 19 19 19 18 18 18 18 18 18 18 18 18 18 18 18 18 18 18 18 18 18 18 18 18 18 17 17 17 17 17 17 17 17 17 17 17 17 17 16 16 16 17 17 17 17 17 17 17 17 17 17 17 17 17 17 17 17 17 17 17 17
20 20 20 20 21 22 23 22 22 21 20 19 19 19 18 18 18 19 19 19 19 19 19 18 18 19 19 19 18 19 18 18 18 18 18 18 18 18 18 18 18 18 18 18 18 18 18 18 18 18 18 17 17 17 17 17 17 17 17 17 17 17 16 16 16 17 17 17 17 17 17 17 17 17 17 17 17 17 16 17 17 17 17 17 17
20 20 20 20 21 22 22 22 22 21 21 20 20 19 19 18 18 18 18 19 19 19 19 18 18 18 18 19 19 19 19 19 19 19 18 18 18 18 18 19 19 19 18 18 18 18 18 18 18 18 18 18 18 17 17 17 17 17 17 17 17 17 17 16 16 16 17 17 17 17 17 17 17 17 17 17 17 16 16 16 16 17 17 17 17
20 20 20 20 21 22 22 23 22 21 21 21 20 20 19 18 18 18 18 18 18 18 18 18 18 18 18 19 19 19 19 19 19 19 18 18 18 18 18 18 19 19 18 18 18 18 18 18 18 18 18 18 18 18 17 17 17 17 17 17 17 16 17 17 16 16 16 16 17 17 17 17 17 17 17 17 17 16 17 16 16 16 16 17 17
20 20 20 20 21 22 22 23 22 21 21 21 20 19 19 18 18 18 18 18 18 18 18 19 19 19 18 18 19 19 19 19 19 19 18 18 18 18 18 18 18 18 18 19 18 18 18 18 18 18 18 18 18 17 17 17 17 17 17 17 17 17 17 17 17 16 16 16 16 16 17 16 17 17 17 17 17 17 17 17 16 16 16 16 16
19 20 20 20 21 22 23 22 22 22 21 21 20 19 18 18 19 19 18 18 18 18 19 19 19 19 18 18 19 19 19 19 19 18 18 18 18 18 18 18 18 18 18 19 18 18 18 18 18 18 18 18 17 17 17 17 17 17 17 17 17 17 17 17 17 17 16 16 16 16 16 16 16 16 16 17 17 16 16 17 16 16 16 16 16
19 20 20 21 21 22 23 22 22 22 22 21 19 19 18 18 18 19 19 18 18 18 19 19 19 19 18 18 19 19 19 19 18 18 18 18 18 18 18 18 18 18 18 18 18 18 18 18 18 18 18 17 17 17 17 17 17 18 18 17 17 17 17 16 16 16 16 16 16 16 16 16 16 16 16 16 16 16 16 16 16 16 16 16 16
19 19 20 21 21 22 23 22 22 22 22 21 19 18 18 19 19 19 19 19 19 19 19 19 19 19 19 19 19 19 19 18 18 18 18 18 18 18 18 18 17 17 17 18 18 18 18 18 18 17 17 17 17 17 17 17 18 18 18 18 17 17 17 17 16 16 16 16 16 16 16 16 16 16 16 16 16 16 16 16 16 15 15 15 15
19 19 20 21 21 22 22 22 22 21 21 21 19 18 19 19 19 19 19 19 19 19 19 19 19 19 19 19 19 19 18 18 18 18 18 18 18 18 18 18 18 17 17 17 17 17 17 17 17 17 17 17 17 17 17 18 18 18 18 18 18 18 17 17 17 16 16 16 16 16 16 16 16 16 16 16 16 15 15 16 16 15 15 16 15
19 18 19 20 21 21 22 22 21 21 21 20 19 19 19 19 18 18 18 18 19 19 19 18 19 19 19 19 18 18 18 18 18 18 18 18 18 18 18 18 18 18 17 17 17 17 17 17 17 17 17 17 18 18 18 18 18 19 19 18 18 18 18 17 17 17 16 16 16 16 16 16 16 16 16 16 16 16 16 16 16 15 15 15 15
18 18 19 20 20 20 21 21 20 20 20 20 19 19 19 19 19 19 19 19 19 19 18 18 18 18 18 19 18 18 18 18 18 18 18 18 18 18 18 18 18 18 18 18 17 17 17 17 17 18 18 18 18 18 18 18 18 19 19 18 18 18 18 18 17 17 16 16 16 16 16 16 16 16 16 16 16 16 15 15 15 15 15 15 15
18 18 19 19 19 20 20 20 20 20 20 20 19 19 19 20 20 20 20 19 19 18 18 18 18 18 18 18 18 18 18 18 18 18 18 18 18 18 18 18 18 18 18 18 18 18 18 18 18 18 18 18 18 18 18 18 18 18 18 18 18 18 18 18 17 17 16 16 16 15 16 16 16 16 16 16 16 15 15 15 15 15 15 15 15
19 18 18 19 19 19 20 20 20 20 20 19 19 19 19 20 20 20 20 20 19 19 19 19 18 18 18 18 18 18 18 18 18 18 18 18 18 18 18 18 18 18 18 18 19 18 18 18 18 18 18 18 18 18 18 18 18 18 18 18 18 19 19 18 17 17 16 16 16 15 15 15 15 16 16 16 15 15 15 15 15 15 15 14 14
19 19 18 19 19 19 19 19 19 20 19 19 19 19 19 19 20 20 20 19 19 19 19 19 19 19 19 18 18 18 18 18 18 18 18 18 18 18 18 18 18 18 18 18 18 18 18 18 18 18 18 18 18 18 18 18 18 18 18 18 18 19 19 18 18 17 16 16 16 16 15 15 15 16 16 15 15 15 15 15 15 14 14 14 14
19 18 18 18 19 19 19 19 19 19 19 19 19 19 19 19 19 20 19 19 19 19 19 19 19 19 19 19 18 18 18 18 18 18 18 18 18 18 18 18 18 17 17 18 18 18 18 18 18 18 18 18 18 18 18 18 18 18 18 18 18 19 18 18 18 17 16 16 16 15 15 15 16 16 15 15 15 15 15 15 14 14 14 14 14
18 18 18 19 19 19 19 19 19 19 19 19 19 19 19 19 19 20 19 19 19 19 19 19 18 18 19 19 18 18 18 18 18 18 18 18 18 18 18 18 17 17 17 18 18 18 18 18 18 18 18 18 18 18 18 18 18 18 18 18 18 18 18 18 18 17 16 16 15 15 15 15 15 15 15 15 15 15 15 15 14 14 14 14 14
18 18 19 19 19 19 19 19 19 19 19 19 19 19 19 19 19 20 19 19 19 19 19 18 18 18 18 18 18 18 18 18 18 18 18 18 18 18 18 17 17 17 17 17 18 18 18 18 18 18 18 18 18 18 19 18 18 18 18 18 18 18 18 18 17 17 16 16 15 15 15 15 15 15 15 15 15 15 15 14 14 14 14 14 14
18 18 18 18 18 18 19 19 19 19 19 19 19 19 19 19 19 20 19 19 19 19 19 18 18 18 18 18 18 18 18 18 18 18 18 18 18 17 17 17 17 18 18 18 18 18 18 18 18 18 18 18 18 18 19 19 18 18 18 18 18 19 18 18 17 17 16 16 15 15 15 16 15 15 15 15 15 15 15 14 14 14 14 14 14
18 18 18 18 18 18 19 19 19 19 19 19 19 19 19 19 19 19 19 19 19 19 19 18 18 18 18 18 18 18 18 18 18 18 18 18 17 17 17 17 17 18 19 19 18 18 18 18 18 18 18 18 18 18 19 19 19 18 18 18 18 19 18 18 17 17 16 16 15 15 15 15 15 15 15 15 15 15 15 14 14 14 14 14 14
18 18 18 18 18 18 19 19 19 19 19 18 18 19 18 19 19 19 19 19 18 18 18 18 18 18 18 18 18 18 18 18 18 18 18 18 17 17 17 17 17 18 19 19 19 18 18 18 18 18 18 18 18 18 19 19 19 18 18 18 18 18 18 18 17 17 16 16 16 15 15 15 15 15 15 15 15 15 15 14 14 14 14 14 14
18 18 18 18 18 18 18 19 19 19 18 18 18 18 18 18 19 19 18 18 18 18 18 18 18 18 18 18 18 18 18 18 18 18 18 17 17 17 17 17 17 18 18 18 19 18 18 18 18 18 18 18 18 18 19 19 19 19 18 18 18 18 18 18 17 17 17 16 16 15 15 15 16 16 16 15 15 15 15 14 14 14 14 14 14
18 18 18 18 18 18 18 18 19 18 18 18 18 18 18 18 18 18 18 18 18 18 18 18 19 19 18 18 18 17 18 18 18 18 18 18 17 17 17 17 17 18 18 18 18 18 18 18 18 18 18 18 18 18 19 19 19 19 18 18 18 18 18 17 17 17 17 16 16 15 16 16 16 16 16 16 16 15 15 15 14 14 14 14 13
18 18 17 18 18 17 18 18 18 18 18 18 18 18 18 18 18 18 18 18 18 18 18 18 19 19 18 18 18 17 18 18 17 17 18 18 17 17 17 17 17 17 17 18 18 18 18 18 18 18 18 18 18 18 19 19 19 18 18 18 18 18 18 17 17 17 17 16 16 16 16 16 16 16 16 16 15 15 15 15 14 14 14 14 13
18 18 18 18 17 18 18 18 18 18 18 18 18 18 18 18 18 18 18 18 18 18 18 18 18 18 18 18 18 18 18 18 18 17 18 18 17 17 17 17 17 17 17 18 17 17 18 18 18 18 18 18 18 18 18 19 19 18 18 18 18 18 18 18 18 17 17 16 16 16 16 16 16 16 16 16 15 15 15 15 15 15 15 14 14
18 17 18 18 18 18 18 18 18 18 18 18 18 18 18 18 18 18 18 18 18 18 18 18 18 18 18 18 18 18 18 18 18 18 17 17 17 17 17 17 17 17 17 17 17 17 17 17 17 18 18 18 18 18 18 18 18 18 18 18 18 18 18 18 18 17 16 16 16 16 16 16 16 16 16 16 15 15 15 15 15 15 15 14 14
17 17 18 18 18 17 18 17 17 17 18 18 18 18 18 18 18 18 18 18 18 18 18 18 18 18 18 18 18 18 18 18 18 18 17 17 17 17 17 17 17 17 17 17 17 17 17 17 17 18 18 18 18 18 18 18 18 18 18 18 18 18 18 18 18 17 16 16 16 16 16 16 16 16 16 16 16 15 15 15 15 15 15 15 14
17 17 18 18 18 17 17 17 17 17 18 18 18 18 18 17 18 18 18 18 18 18 18 18 18 18 18 18 18 18 18 18 18 18 17 17 17 17 17 17 17 17 17 17 17 17 17 17 18 18 18 18 18 18 19 18 18 18 18 18 18 18 18 18 17 16 16 16 16 16 16 16 16 16 16 16 15 15 15 15 15 15 15 15 15
17 17 17 18 18 17 17 17 17 17 18 18 18 18 17 18 18 18 18 18 17 17 18 18 18 18 18 18 18 18 18 18 18 18 18 18 18 17 17 17 17 17 17 17 17 17 17 18 18 18 18 18 19 19 19 19 18 18 18 18 18 18 18 18 17 16 16 16 16 16 16 16 16 16 16 15 15 15 15 15 15 15 15 15 15
18 17 17 17 18 18 17 17 17 17 18 18 18 17 18 18 18 18 18 17 18 17 17 18 18 18 18 18 18 18 18 18 18 18 18 18 18 17 17 17 17 17 17 17 17 17 18 18 18 18 18 18 19 19 19 19 18 18 18 18 18 18 18 17 16 16 16 16 16 16 16 16 15 15 15 15 15 15 15 15 16 15 15 15 15
18 17 17 17 17 17 17 17 17 17 18 18 17 17 17 18 18 18 18 18 18 18 17 17 17 17 17 18 18 18 18 18 18 18 18 18 18 17 17 17 16 17 17 17 17 18 18 18 18 18 18 18 19 19 19 19 18 18 18 18 18 18 18 17 16 16 16 16 16 16 16 15 15 15 15 15 15 15 15 15 16 15 15 15 15
17 17 17 17 17 17 17 17 17 17 18 17 17 17 17 18 18 18 18 18 18 17 17 17 17 17 17 17 17 18 18 18 18 18 18 18 17 17 17 17 17 17 17 17 17 18 18 18 18 18 18 18 18 18 18 18 18 18 18 18 18 17 17 16 16 16 16 16 16 16 15 15 15 15 15 15 15 15 15 15 15 15 15 16 15
17 17 17 17 17 17 17 17 17 17 17 17 17 17 17 18 18 18 18 18 18 17 17 17 17 17 17 17 17 18 18 18 18 18 17 17 17 16 16 16 17 17 17 17 17 17 18 18 18 18 18 18 18 18 18 18 18 18 18 18 18 17 16 16 16 15 15 15 15 15 15 15 15 15 15 15 15 15 15 15 15 15 15 15 15
17 17 17 17 17 17 17 17 17 17 17 17 17 17 17 17 18 18 18 18 18 17 17 17 17 17 17 17 17 18 18 18 17 17 17 17 17 16 16 16 17 17 17 17 17 17 17 17 17 18 18 18 18 18 18 18 18 17 17 17 17 17 16 16 16 15 16 16 15 15 15 15 15 15 15 15 15 15 15 15 15 15 15 16 16
17 17 17 17 17 16 16 16 17 17 17 17 17 17 17 17 18 17 17 17 17 17 17 17 17 17 17 17 17 18 18 18 17 17 17 16 16 16 16 17 17 17 17 17 17 17 17 17 17 17 18 17 17 18 17 17 17 17 17 17 16 16 17 16 16 16 16 16 16 16 16 16 15 15 15 15 15 15 15 15 15 15 15 16 16
17 17 17 17 16 16 16 16 17 17 17 17 17 17 17 17 18 17 17 17 17 17 17 17 17 17 17 17 18 18 18 17 17 17 17 17 17 17 17 17 17 17 17 17 17 17 17 17 17 17 18 18 17 17 17 16 17 16 16 17 16 16 17 16 16 16 16 16 16 16 16 15 15 15 15 15 15 15 15 15 15 15 15 16 16
17 17 16 17 16 16 16 16 17 17 17 17 17 17 17 17 17 17 17 17 17 17 17 17 17 17 17 17 18 18 17 17 17 17 17 17 17 17 17 17 17 17 17 17 17 17 17 17 17 17 17 17 17 17 16 16 16 16 16 16 16 16 16 16 16 16 16 16 16 16 16 15 15 15 15 15 15 15 16 16 16 16 16 16 16
16 16 16 16 16 16 16 16 16 16 16 17 17 17 17 16 16 16 17 17 17 17 17 17 17 17 17 17 17 17 17 17 17 17 17 17 17 17 17 17 17 17 17 16 16 17 17 16 17 16 16 17 17 17 16 16 16 16 16 16 16 16 16 16 16 16 16 16 16 16 15 15 15 15 15 15 15 15 15 15 15 15 16 15 16
16 16 16 16 16 16 16 16 16 16 16 16 16 16 16 16 16 16 16 17 17 17 17 17 17 17 17 17 17 17 17 17 17 16 16 17 17 17 17 17 17 17 17 16 16 17 17 16 17 16 16 16 17 17 16 16 16 16 16 15 15 15 15 15 16 15 15 15 15 15 15 15 15 15 15 15 15 15 15 15 15 15 15 15 15
16 16 16 16 16 16 16 16 15 16 15 15 15 15 16 16 16 16 17 17 17 17 17 17 17 17 17 17 17 17 17 17 17 16 16 16 16 16 16 16 17 16 16 16 16 16 16 17 16 16 16 16 16 16 16 16 16 15 15 15 15 15 15 16 16 16 16 16 15 15 15 15 15 15 15 15 15 14 14 15 15 15 15 15 15
16 16 16 16 16 16 16 16 15 15 15 15 15 16 16 17 17 17 17 17 17 17 17 17 17 17 17 17 17 17 17 17 16 16 16 16 16 16 16 16 16 16 16 16 16 16 16 16 16 16 16 16 16 15 16 16 15 15 15 15 15 15 16 16 16 16 15 16 16 15 15 15 15 15 15 15 14 14 14 14 15 15 15 15 15
16 16 16 16 16 16 16 16 15 15 15 15 16 17 17 17 17 18 17 17 17 17 17 17 17 17 17 17 17 17 17 16 16 16 16 16 16 16 16 16 16 16 16 16 16 16 16 16 16 16 16 16 16 15 16 16 16 15 16 16 15 15 16 15 15 15 15 15 15 16 15 15 15 15 15 14 14 14 14 14 15 15 15 15 15
16 16 16 16 16 16 16 15 15 15 15 15 16 17 17 17 17 17 17 17 17 17 17 17 17 17 17 17 17 17 16 16 16 16 16 16 16 16 16 16 16 16 16 16 16 16 16 16 16 17 16 15 15 15 16 16 16 16 16 15 14 15 16 15 14 14 15 15 15 15 15 15 15 14 14 14 14 14 14 14 15 15 15 15 15
15 16 16 16 16 16 15 15 15 15 16 16 16 17 16 16 16 16 17 17 16 16 16 17 17 17 17 17 16 16 16 16 16 16 16 16 16 16 16 16 16 16 16 16 16 16 16 16 16 16 17 16 15 15 16 16 16 17 16 16 15 16 16 15 14 14 14 15 15 15 15 15 15 14 14 14 14 14 14 15 15 15 15 15 15
15 15 15 15 15 15 15 15 15 16 16 16 16 16 16 16 16 16 16 16 16 16 17 17 17 17 17 17 16 16 16 16 16 16 16 16 16 16 16 16 16 16 16 16 16 16 16 16 16 16 17 17 16 15 16 16 16 17 17 17 17 17 16 15 15 14 13 14 14 14 15 15 15 14 14 14 14 14 15 15 15 15 15 15 15
15 15 15 15 15 15 15 15 16 16 16 16 16 16 16 17 17 17 17 17 17 17 17 17 17 17 17 16 16 16 16 16 16 16 16 16 16 16 16 16 16 15 16 16 16 16 16 16 16 16 16 16 16 16 16 16 16 16 17 17 18 18 17 16 15 14 14 13 13 14 14 14 14 14 14 14 14 14 15 15 15 15 15 15 15
15 15 15 15 15 15 15 15 16 16 16 16 16 16 17 17 17 18 17 18 18 18 17 17 17 17 17 16 16 16 16 16 16 16 16 16 16 16 16 16 15 15 15 16 16 16 16 16 16 16 16 16 16 17 16 16 16 16 17 17 18 17 17 17 16 15 14 13 13 13 13 13 14 13 14 14 14 15 15 15 15 15 15 15 15
15 15 15 15 15 15 15 15 16 16 16 16 16 17 17 18 18 18 18 18 18 18 17 17 17 17 16 16 16 16 16 16 16 16 16 16 16 16 16 16 16 16 16 16 16 16 16 16 16 16 16 16 16 17 17 17 16 16 16 17 17 17 17 17 16 16 15 13 13 13 12 13 13 13 13 14 14 15 15 14 14 14 14 15 15
15 15 15 15 15 15 15 15 16 16 16 16 17 17 17 18 18 18 18 18 18 17 17 17 17 17 16 16 16 16 16 16 16 16 16 16 16 16 16 16 16 16 16 16 16 16 16 16 16 16 16 16 16 16 17 17 16 16 17 17 17 16 16 16 16 16 15 14 13 12 12 13 12 12 13 13 14 14 14 14 14 14 14 14 14
15 15 15 15 15 15 15 15 16 16 16 16 17 17 17 18 18 18 18 18 18 17 17 17 17 17 17 17 17 16 16 17 17 17 17 17 17 17 16 16 16 16 16 16 16 16 16 16 16 16 16 16 16 16 16 16 16 16 17 17 17 17 17 17 16 16 15 14 13 12 12 12 12 12 12 13 14 14 14 14 14 14 14 14 14
Height
768 770 772 775 777 778 780 781 784 785 787 788 789 790 791 793 793 795 796 796 797 798 798 799 799 800 802 803 805 805 806 807 808 809 810 811 813 814 815 815 816 816 817 818 818 819 820 820 821 821 821 822 822 823 824 825 826 826 826 826 826 826 826 827 827 828 828 828 828 827 827 826 827 827 828 828 828 828 828 828 828 828 828 828 828
766 769 772 775 777 779 781 782 785 787 788 789 790 791 793 793 794 795 797 798 799 799 800 800 801 802 803 804 806 807 807 808 809 810 812 813 814 815 816 817 817 818 818 819 819 820 821 822 822 822 823 823 823 824 825 826 826 827 827 827 827 827 827 828 828 829 829 829 829 828 828 828 828 829 829 829 830 830 830 830 830 830 830 830 830
765 769 772 775 778 779 781 783 785 788 789 790 792 792 794 794 795 797 798 799 800 801 802 802 803 804 805 806 807 808 809 809 811 812 813 814 815 816 817 818 818 819 819 820 820 821 822 823 823 823 824 824 825 825 826 827 827 828 828 828 828 828 828 829 829 830 830 830 829 829 829 830 830 830 831 831 831 831 831 832 832 832 832 832 832
766 769 772 776 778 780 782 784 786 789 790 791 793 793 795 795 797 798 799 800 802 803 803 804 805 805 806 807 808 809 810 811 812 813 814 815 816 817 818 819 819 820 820 821 822 823 823 824 824 825 825 825 826 826 827 828 828 829 828 829 829 829 829 830 830 831 831 831 830 830 830 831 832 832 833 833 833 833 833 833 833 833 834 834 834
767 769 773 776 778 781 782 785 787 789 791 792 793 794 795 796 798 799 800 802 803 804 805 806 806 807 808 809 810 810 811 812 813 814 815 816 817 818 818 819 820 821 821 822 823 824 824 825 825 826 826 826 827 827 828 829 829 829 829 829 829 830 830 831 831 832 832 832 832 832 832 832 833 833 834 834 834 834 835 835 835 835 835 835 835
767 770 773 776 779 781 783 786 788 791 792 793 794 795 796 798 799 800 802 803 804 805 806 807 808 809 809 810 811 812 813 813 814 815 816 817 818 818 819 820 821 822 822 823 824 825 825 826 826 826 827 827 828 828 829 830 830 830 830 830 830 831 831 832 832 833 833 833 833 833 833 833 834 834 835 835 836 836 836 836 836 836 837 837 837
768 771 773 776 779 781 784 786 789 791 793 794 795 797 798 799 800 801 803 804 806 806 808 808 809 810 810 811 812 813 814 814 815 816 817 818 819 819 820 821 822 822 823 824 825 826 826 827 827 827 828 828 828 829 830 831 831 831 831 831 831 831 832 833 833 834 834 834 834 835 835 835 835 835 836 836 837 837 837 838 838 838 838 838 838
770 772 774 777 779 782 785 788 790 792 794 795 796 798 799 800 801 803 804 805 807 808 809 809 810 811 812 812 813 814 814 815 816 817 818 819 820 820 821 822 822 823 824 825 826 827 827 828 828 828 829 829 829 830 831 832 832 831 832 832 832 832 833 834 834 835 835 835 835 836 836 836 836 836 837 837 838 838 838 839 839 839 839 839 839
772 774 776 778 781 784 786 789 791 793 795 796 797 799 800 802 803 804 805 807 808 809 809 810 811 812 813 813 814 814 815 816 817 818 819 819 820 821 822 822 823 824 825 826 827 827 828 828 829 830 830 830 830 831 832 832 832 832 832 833 833 833 834 834 835 836 836 836 836 837 837 837 837 838 838 838 839 839 839 839 839 840 840 840 840
774 775 777 779 782 785 787 790 792 794 795 797 798 800 802 803 804 805 806 808 809 810 810 811 812 813 814 814 814 815 815 816 817 818 819 820 821 822 823 823 824 825 826 827 827 828 828 829 830 830 831 831 831 832 832 833 833 833 833 833 834 834 834 835 836 837 837 837 837 838 838 838 839 839 839 839 840 840 840 840 840 841 841 841 841
776 778 779 781 783 786 788 791 793 794 796 797 799 801 803 804 805 807 808 809 810 811 811 812 813 814 814 815 815 816 816 817 818 819 819 820 821 822 823 823 824 825 826 827 828 828 829 829 830 831 832 832 832 833 833 833 834 833 833 834 835 835 835 836 837 838 838 838 838 839 839 839 840 840 841 841 841 841 841 841 842 842 842 843 843
778 780 781 784 786 788 790 792 793 795 797 798 800 802 803 804 806 807 808 809 810 812 812 813 814 815 815 815 816 817 818 818 819 820 820 821 822 823 823 824 825 825 826 827 828 829 829 830 831 832 833 833 834 834 834 834 834 834 834 835 835 836 836 837 838 839 839 839 839 840 840 840 841 841 841 842 842 842 842 843 843 843 843 844 844
779 781 783 785 787 790 791 793 794 796 797 799 801 802 804 805 806 808 809 810 811 812 813 814 815 816 816 816 817 818 819 819 820 821 821 822 823 823 824 825 825 826 826 827 828 829 830 831 832 833 833 834 834 835 835 835 835 836 835 836 836 837 837 838 839 840 840 840 840 841 841 841 842 842 842 843 843 843 843 844 844 844 844 845 845
780 783 785 787 789 791 792 794 795 797 798 800 802 803 804 806 807 808 810 811 812 813 814 815 816 817 817 818 818 819 820 820 821 821 822 823 823 824 825 825 826 826 827 827 828 829 831 831 832 833 834 835 835 836 836 836 836 837 837 837 837 838 838 839 840 841 842 842 842 842 843 843 843 844 844 844 844 844 845 845 845 845 846 846 846
782 784 787 789 790 792 794 795 796 798 799 801 802 804 805 806 808 809 810 811 812 813 814 815 816 817 818 819 819 820 821 821 822 823 823 824 824 825 825 826 826 827 827 828 829 830 831 832 833 833 834 835 836 836 837 837 837 838 838 838 839 839 839 840 841 842 843 843 843 843 844 844 845 846 846 846 846 846 846 846 846 846 847 847 847
783 786 788 790 792 793 795 796 797 799 800 802 803 804 806 807 809 810 811 811 812 813 814 816 817 818 819 819 820 821 822 822 823 824 824 825 825 826 826 827 827 827 828 829 830 831 832 833 833 833 834 835 836 837 838 838 838 839 839 840 840 840 841 841 841 842 843 844 844 845 845 846 846 847 847 848 848 848 848 847 847 847 848 848 848
785 787 789 791 793 794 796 797 798 800 801 802 804 805 807 808 809 810 811 811 812 814 815 816 817 818 819 820 821 822 823 824 824 825 825 826 827 827 827 828 829 828 828 829 831 832 833 833 834 834 834 835 836 837 838 839 839 840 840 841 841 842 842 842 842 843 844 845 846 846 846 847 848 848 848 849 849 849 849 849 849 849 849 849 849
787 789 790 792 793 795 797 798 799 801 802 803 804 805 807 808 809 810 811 811 813 814 816 817 818 819 820 821 822 822 823 824 825 826 826 827 828 828 828 829 830 830 829 830 831 832 834 834 835 835 835 835 836 837 838 839 840 840 841 842 842 843 843 843 844 844 846 847 847 847 848 848 849 849 849 849 850 851 851 851 851 850 850 850 851
789 790 791 793 794 796 798 799 800 801 802 803 804 805 807 807 809 810 811 812 814 815 816 817 818 819 820 822 822 823 824 824 826 826 827 828 828 829 830 830 830 830 830 830 832 833 834 835 836 835 836 836 837 838 839 839 840 841 842 843 843 843 844 844 845 845 847 848 848 849 849 849 850 850 850 851 851 852 852 852 852 852 852 852 852
790 791 792 794 795 797 798 800 800 801 802 803 804 805 807 807 809 811 812 813 814 816 817 818 819 820 821 822 823 824 824 825 826 827 827 828 829 830 831 831 831 831 831 831 832 833 834 835 836 836 836 837 837 838 839 840 841 842 843 844 844 844 845 845 846 847 847 848 849 850 850 850 851 852 852 852 852 853 853 853 853 853 854 854 854
791 792 793 795 796 798 798 799 800 801 802 803 804 805 807 808 810 811 813 814 815 816 817 818 820 821 822 822 823 824 825 825 826 827 828 829 829 830 831 832 832 832 832 832 833 834 835 836 837 837 837 837 838 839 840 841 842 843 844 844 845 845 846 846 847 848 848 849 850 851 851 852 852 853 853 853 853 854 854 854 855 855 855 855 856
790 792 793 794 795 795 796 797 798 800 801 803 804 805 807 808 810 811 813 814 815 816 817 818 820 821 822 823 824 825 825 826 827 828 828 829 830 831 832 833 832 832 832 833 833 834 835 837 837 837 837 838 839 840 841 842 843 843 844 845 846 847 847 848 848 849 849 850 851 852 853 853 854 854 855 855 855 855 855 855 856 856 856 856 857
790 790 791 791 791 792 794 795 797 799 801 802 804 805 806 807 809 811 813 814 815 817 817 818 820 821 822 823 825 826 827 827 828 829 829 830 830 831 832 833 833 833 833 833 834 835 836 837 838 838 838 838 839 841 841 842 843 844 845 846 847 848 848 849 850 850 850 850 851 853 854 855 855 856 856 856 856 856 856 857 857 857 857 857 857
787 787 788 789 790 792 793 795 796 799 800 802 804 805 806 807 809 811 812 814 815 817 818 819 820 821 822 824 825 827 828 828 829 829 830 831 831 832 833 833 834 834 834 834 834 835 836 837 838 838 838 839 840 841 842 843 844 845 846 847 848 849 850 850 851 851 851 851 852 854 855 856 856 857 857 857 857 857 857 858 858 858 858 858 858
781 784 786 788 789 790 791 793 795 798 800 802 804 805 807 808 810 811 813 814 815 817 818 819 820 821 822 824 825 827 828 828 829 830 830 831 832 833 833 834 834 835 835 835 835 836 836 837 838 838 839 840 841 842 843 843 844 845 847 848 849 850 851 851 851 851 851 852 853 855 855 856 857 858 858 858 859 859 859 859 859 859 859 859 859
778 780 782 784 786 787 789 791 793 796 799 801 803 806 807 809 810 811 813 814 815 817 818 819 820 822 823 824 825 826 827 828 829 830 831 832 833 834 834 834 835 835 836 836 836 836 837 838 838 839 839 841 842 843 844 844 845 846 847 849 850 852 852 852 852 852 853 854 855 856 856 857 858 858 859 859 860 860 860 860 860 859 859 860 860
779 781 782 784 785 786 788 789 792 795 798 800 803 805 807 809 810 811 812 814 816 817 818 820 821 823 824 825 826 826 827 828 829 831 832 833 834 834 835 835 836 836 837 837 838 838 839 839 839 840 840 841 843 844 844 845 846 847 848 850 852 853 853 853 853 853 855 856 856 857 857 858 858 859 860 860 861 861 861 861 861 860 860 860 861
782 784 785 786 787 788 788 789 791 794 797 799 802 804 807 809 810 811 812 814 816 817 818 820 821 822 824 825 826 827 828 829 830 831 832 833 834 835 835 836 836 837 838 839 839 839 840 840 841 841 841 842 843 844 845 846 847 848 849 851 852 853 854 854 854 855 856 857 857 858 858 859 859 860 861 861 862 862 862 862 862 861 861 861 861
783 784 786 787 788 790 790 791 792 794 797 799 801 803 805 808 809 811 813 814 816 818 819 820 821 822 823 825 826 827 828 829 830 831 832 834 835 835 836 836 837 838 839 839 840 840 841 841 842 842 842 843 844 845 845 846 847 849 850 851 853 854 854 854 855 857 857 858 858 859 859 860 860 861 861 862 863 864 864 863 863 862 862 862 862
783 784 787 788 789 791 792 793 795 796 798 800 802 803 805 807 809 811 813 814 817 820 820 820 821 822 823 825 826 828 828 829 830 831 832 834 835 836 836 837 838 839 839 840 840 841 841 842 842 842 843 844 844 845 846 847 848 849 851 852 853 853 854 855 856 858 858 859 859 859 860 860 861 862 862 863 864 865 865 864 864 864 863 863 863
784 785 787 789 791 792 793 794 796 798 799 800 802 803 805 807 809 811 813 815 817 820 820 820 820 822 824 825 826 827 828 829 830 832 833 834 835 836 837 838 838 839 839 840 840 841 842 842 842 843 843 844 845 845 846 847 848 850 851 852 853 853 854 855 857 858 859 859 860 860 860 861 862 863 863 864 865 865 866 865 865 865 864 864 864
785 786 788 789 791 792 793 795 796 798 800 801 802 803 804 806 809 811 813 815 816 819 820 820 821 823 825 826 826 827 828 830 831 832 833 834 835 836 837 838 839 839 839 840 841 841 842 842 843 843 844 844 845 846 846 847 848 850 851 852 852 853 855 856 857 858 859 860 860 861 861 862 862 863 864 865 865 866 866 866 866 866 866 865 865
785 787 788 789 791 792 793 795 797 798 800 801 803 805 806 807 809 811 813 814 816 818 820 821 822 824 825 826 826 826 828 830 831 832 833 835 836 836 837 838 839 839 840 840 841 841 842 842 843 844 844 845 845 846 846 847 848 850 851 851 852 854 855 857 858 859 860 860 861 861 861 862 863 864 865 865 866 866 866 866 866 866 867 867 866
785 787 787 789 791 792 793 795 797 798 800 802 803 805 807 808 808 810 812 814 816 818 819 821 823 825 825 825 826 826 828 829 831 832 833 835 836 836 837 838 839 839 840 840 841 842 842 843 843 844 845 845 845 846 846 847 848 850 850 851 852 854 856 857 859 860 861 861 862 862 862 863 864 864 865 866 866 866 866 867 867 867 867 867 866
784 786 787 788 790 792 793 795 797 798 800 802 802 804 807 808 808 810 812 814 816 818 819 821 823 824 824 825 826 826 828 829 830 832 833 835 836 836 837 838 839 839 840 840 841 842 842 843 844 844 845 845 846 846 846 847 848 850 850 852 853 854 856 858 859 860 861 861 862 862 863 863 864 865 866 866 866 867 867 867 867 867 867 867 866
784 785 787 789 790 792 794 795 797 798 800 802 803 805 807 808 808 810 812 814 816 818 820 821 823 823 824 825 826 827 828 829 831 832 833 834 835 836 837 838 838 839 839 840 841 842 842 843 844 845 845 845 846 846 847 848 849 850 851 853 854 854 856 858 859 861 861 862 863 863 863 864 865 866 867 867 867 867 867 867 868 868 868 867 866
784 785 787 789 790 792 794 795 797 798 800 802 803 805 806 807 809 810 812 815 817 818 820 821 822 823 824 825 826 827 828 829 831 832 833 834 834 836 837 837 838 839 839 840 841 842 842 843 844 845 845 845 846 846 847 849 850 851 852 853 855 855 857 859 860 861 862 863 863 863 864 864 865 866 867 867 867 867 868 868 868 868 868 868 867
784 785 787 789 790 792 794 795 797 798 800 801 802 804 805 807 809 811 813 815 817 818 820 821 822 824 825 825 826 827 828 829 831 832 832 833 834 835 836 837 838 839 839 840 841 842 842 843 844 845 846 846 846 847 848 849 851 852 853 854 856 856 858 860 860 861 862 863 863 864 864 865 866 867 867 867 868 868 868 868 869 869 869 869 868
784 785 787 788 790 792 794 795 796 798 799 800 802 803 805 807 809 811 813 815 816 818 819 821 822 824 825 825 827 827 828 830 830 831 832 833 834 835 836 837 838 839 839 840 841 842 842 843 844 844 846 846 847 847 849 850 852 853 854 856 857 858 859 861 861 862 863 863 864 864 865 865 866 867 868 868 868 869 869 869 869 869 869 869 869
784 785 786 788 789 791 793 794 795 797 798 800 802 803 805 807 809 811 813 814 816 818 819 821 822 823 825 825 826 827 828 829 830 831 832 833 834 835 836 837 838 838 839 840 841 842 843 843 844 844 845 847 848 848 849 851 853 855 856 857 858 860 861 861 862 863 863 864 864 865 865 866 866 867 868 868 869 869 869 869 870 870 870 870 870
783 785 785 786 788 790 792 793 794 796 798 799 801 803 804 806 808 810 811 813 815 817 819 821 822 823 824 825 826 827 828 829 830 831 832 833 834 834 835 837 838 838 839 840 841 842 843 843 844 845 846 846 847 849 850 852 854 856 858 860 860 861 861 862 862 863 863 864 865 865 865 866 867 867 868 868 869 870 870 870 870 870 870 870 870
782 784 784 785 787 789 791 792 794 795 797 799 800 802 804 805 807 808 810 813 815 817 819 820 822 823 824 825 826 827 827 828 829 830 831 832 833 834 835 836 837 838 839 840 842 842 843 844 844 846 847 847 848 849 851 853 854 856 857 859 861 862 862 862 863 863 864 864 865 865 866 866 867 868 868 869 869 870 870 871 871 871 871 871 871
782 783 784 784 786 788 790 792 793 795 796 798 800 801 803 805 807 809 811 813 815 817 819 820 822 822 823 824 825 826 827 828 829 830 831 832 833 834 835 836 837 838 839 840 841 842 843 844 845 845 847 848 849 851 852 854 855 856 856 859 861 862 863 864 863 864 865 865 866 866 866 867 868 868 869 869 870 870 871 871 871 871 871 871 871
782 783 783 784 785 787 789 791 792 794 796 797 799 801 803 806 808 810 812 814 816 817 819 820 821 822 823 824 825 825 826 827 828 829 830 831 832 833 834 835 837 838 839 840 841 842 843 844 845 846 846 848 850 851 852 853 854 855 856 859 862 862 864 865 865 866 867 866 867 867 868 868 868 869 869 870 870 871 871 871 871 871 871 871 871
781 782 783 784 785 787 788 790 791 793 795 797 799 801 803 806 808 810 813 814 816 817 818 819 820 821 822 823 824 825 826 827 828 829 830 831 831 833 834 835 836 837 838 839 841 842 843 844 845 846 846 847 849 851 852 853 854 854 855 857 860 862 864 864 865 868 869 868 869 869 869 869 869 870 870 870 871 871 872 872 871 872 872 872 872
780 782 783 784 786 787 788 789 791 792 795 797 799 802 803 805 807 809 811 813 815 816 817 818 819 820 822 823 824 825 826 826 827 829 830 831 831 832 834 834 836 837 838 839 840 841 843 844 845 846 847 847 848 851 852 853 854 855 854 855 856 857 860 862 864 869 871 870 870 870 870 870 870 871 871 872 872 872 872 872 872 872 872 872 872
780 782 783 785 786 788 788 789 791 793 795 797 800 802 804 806 808 809 811 812 814 815 817 818 819 820 822 823 824 825 825 826 827 829 830 830 831 832 833 834 835 836 837 839 840 841 842 844 845 846 847 848 849 850 851 853 854 854 855 854 854 854 855 858 861 866 870 872 872 871 871 871 871 872 872 872 873 873 873 873 873 873 873 873 873
780 782 783 785 787 788 789 789 791 793 795 798 800 802 804 806 808 809 811 812 814 815 817 818 819 821 822 823 824 825 825 827 828 829 830 830 831 832 833 834 835 836 837 838 840 841 842 843 845 846 847 848 849 850 851 851 852 853 854 854 854 855 855 856 858 860 865 871 873 872 872 873 873 873 873 874 874 874 874 874 874 874 874 875 875
779 782 783 786 787 789 789 790 791 793 795 798 800 803 804 806 808 809 811 813 814 816 817 818 820 821 822 823 824 825 826 827 828 829 830 831 831 832 833 834 835 836 837 838 839 841 842 843 845 846 847 848 849 850 850 850 851 853 854 855 855 855 856 857 859 859 862 867 872 873 873 873 874 874 874 875 875 875 875 875 875 875 876 876 876
780 782 783 786 787 789 790 790 792 794 796 798 800 803 805 806 808 809 811 813 814 816 817 819 820 821 823 823 824 826 827 827 828 829 830 831 832 832 833 834 835 836 837 838 839 841 842 843 844 845 846 847 848 849 850 850 852 853 853 854 854 855 856 857 859 860 861 864 868 871 872 873 874 875 876 876 876 876 876 876 876 877 877 877 877
780 782 783 785 787 789 790 791 793 795 796 799 801 803 805 807 808 810 812 813 815 817 818 819 821 822 823 824 825 826 827 828 829 830 830 831 832 833 834 835 835 836 837 838 839 841 842 843 844 845 845 846 847 848 849 850 851 852 853 853 854 854 855 855 856 858 860 862 866 870 872 873 874 876 876 877 877 877 877 877 877 878 878 878 877
Wind_Speed
24 27 26 23 23 22 20 21 22 24 24 23 23 23 25 27 27 27 28 29 29 30 29 29 29 29 28 28 26 25 26 27 27 26 25 25 24 24 23 21 21 22 22 21 21 22 22 23 23 23 22 24 25 23 22 22 21 21 21 20 19 19 20 20 21 19 18 18 17 17 17 19 19 19 19 18 18 19 19 20 21 21 22 22 23
28 29 28 24 24 22 21 22 23 24 24 23 23 23 23 25 27 27 27 27 28 28 28 28 28 27 26 26 25 26 27 28 27 26 25 25 25 24 23 22 22 22 22 22 23 23 23 23 23 22 23 25 25 23 23 22 21 20 20 20 19 20 20 19 19 19 18 17 17 17 18 18 19 19 18 18 18 18 19 19 20 21 21 22 22
29 29 28 25 25 23 22 23 24 24 23 23 23 23 23 24 25 25 26 26 27 27 27 27 26 25 25 26 27 27 27 27 26 25 26 26 25 24 24 23 22 22 22 23 24 23 23 23 23 24 24 24 23 22 22 21 21 20 19 20 20 20 20 18 18 19 19 17 17 18 18 19 19 18 18 18 18 17 18 18 18 19 20 20 21
29 29 27 26 25 23 23 23 24 24 24 23 22 23 23 24 25 23 24 24 24 24 25 26 25 25 25 26 26 26 26 26 25 24 26 26 25 25 24 23 22 22 23 23 23 22 22 22 23 23 22 22 22 22 22 20 20 19 19 20 19 19 19 18 18 20 20 18 17 16 18 19 18 17 17 17 17 16 17 17 16 17 17 18 19
29 29 28 26 25 24 23 24 24 24 24 23 22 22 23 23 24 24 24 23 23 23 23 25 25 25 25 25 24 24 24 24 23 23 25 24 24 25 24 22 22 22 22 22 22 21 20 20 21 21 20 20 20 20 20 19 19 18 18 18 18 17 18 18 18 19 19 18 16 16 17 17 16 16 15 15 16 16 16 15 15 15 16 15 16
30 29 29 27 26 24 23 25 24 24 24 23 22 22 23 23 24 23 24 23 23 24 23 24 24 25 24 23 23 23 23 22 22 22 22 23 23 23 23 23 22 22 22 22 22 21 20 20 20 20 19 19 18 18 18 17 17 16 15 16 16 15 15 17 18 18 18 18 17 17 17 16 15 15 14 13 14 15 15 14 15 15 15 15 14
30 29 29 27 27 24 23 24 23 23 23 23 22 21 22 23 24 23 23 23 23 24 23 23 23 23 24 24 23 22 22 22 22 22 21 22 22 22 22 22 22 23 22 22 21 20 19 19 19 18 18 17 17 16 15 15 14 13 13 14 14 13 14 16 17 17 18 18 18 17 16 16 16 15 14 13 13 13 14 13 13 13 13 13 13
29 29 28 28 26 24 23 24 23 22 22 23 22 21 22 23 24 24 23 23 23 23 22 23 22 22 23 23 23 22 22 23 23 23 22 22 21 21 21 21 22 22 21 21 20 19 18 17 17 17 16 17 16 16 14 13 12 12 13 13 12 11 13 14 15 16 17 18 18 17 15 16 16 15 14 13 13 13 13 13 11 12 12 11 12
28 28 28 28 26 24 23 24 23 21 21 23 22 21 21 22 24 24 23 22 22 22 22 23 22 22 22 22 22 22 23 23 23 23 22 22 21 21 21 20 21 20 20 20 20 19 17 16 16 16 16 16 16 15 14 12 11 11 12 12 10 10 12 12 13 14 17 18 18 17 15 15 16 16 14 13 13 12 13 13 12 12 12 11 12
27 27 28 28 26 24 23 24 23 22 21 22 23 21 21 22 22 22 22 21 21 20 21 22 22 22 21 22 23 23 23 23 23 23 22 22 21 20 20 20 21 20 20 19 18 18 17 17 16 16 16 15 15 14 12 10 10 11 12 13 11 9 11 12 12 15 19 19 18 17 16 17 18 17 15 14 14 13 13 12 11 12 12 12 13
25 26 27 27 26 23 23 24 24 22 21 22 22 21 21 21 21 21 21 21 20 19 19 19 20 21 20 21 23 23 23 23 23 23 22 22 22 21 20 20 20 19 20 19 17 18 18 17 16 16 15 15 14 12 10 8 9 12 14 15 12 11 12 12 13 17 19 17 16 17 17 17 17 16 15 15 15 14 13 13 12 12 13 12 13
24 25 26 26 25 23 23 24 24 23 22 22 21 20 20 21 21 21 20 20 19 19 19 18 18 19 19 20 22 22 22 22 22 22 22 21 21 21 20 18 16 16 18 19 18 18 18 17 17 17 16 15 14 12 9 8 10 14 16 16 14 13 13 13 14 17 17 16 16 16 17 17 17 16 15 15 15 14 14 14 14 14 13 13 13
24 24 25 25 24 24 23 24 24 23 22 21 21 19 19 20 20 19 19 20 19 19 19 18 18 18 17 19 21 20 20 20 21 21 21 20 20 19 17 15 15 15 17 18 19 18 18 18 18 17 16 15 14 12 10 9 11 14 16 16 14 14 13 13 14 15 15 15 15 15 16 17 16 15 14 14 14 13 13 13 13 13 13 13 13
24 24 25 25 24 24 23 23 23 23 22 22 21 19 18 19 19 18 18 17 18 18 19 19 18 18 18 19 20 19 19 19 19 19 20 20 18 16 14 14 14 15 16 18 19 19 19 19 18 18 16 15 13 12 11 10 12 14 15 15 14 13 13 13 13 14 14 14 15 15 15 15 15 15 14 13 13 12 12 12 12 12 12 12 12
25 24 25 25 24 22 22 22 23 23 22 22 21 19 18 19 19 18 17 17 17 17 17 17 17 17 17 19 19 19 19 19 18 18 19 18 16 14 13 13 14 14 15 18 19 19 19 19 19 17 16 14 13 12 13 12 12 14 14 14 13 13 13 13 13 13 14 14 15 15 15 14 14 14 13 12 12 12 12 12 12 12 12 12 12
24 25 25 24 23 21 21 21 23 23 22 22 21 19 19 19 19 18 17 17 17 16 16 17 16 15 15 16 17 17 17 18 18 17 16 15 14 13 13 12 13 15 15 17 18 19 19 19 18 17 16 15 13 13 13 12 12 13 13 13 12 12 12 12 13 12 13 13 13 13 14 15 13 12 12 12 12 12 12 12 12 12 12 11 11
23 25 25 24 23 21 20 21 23 23 22 22 20 19 19 19 19 18 18 17 17 17 16 16 16 16 15 14 15 15 16 16 16 15 14 13 13 12 13 12 12 13 14 16 18 19 19 18 18 16 15 14 14 13 12 12 12 13 13 12 12 11 11 12 12 12 13 13 13 13 13 14 13 12 11 11 11 11 11 11 11 11 11 11 11
22 24 24 23 23 22 21 21 23 23 22 22 20 19 19 19 19 18 18 18 17 17 16 16 16 16 16 15 15 15 15 15 15 14 13 12 13 13 13 12 11 12 14 16 18 19 18 17 16 15 14 14 15 14 12 12 13 13 13 12 11 11 10 11 11 12 12 13 13 12 11 13 12 11 11 11 11 11 11 11 10 11 11 11 12
21 22 23 23 23 22 22 21 22 23 23 22 21 20 19 19 19 18 18 17 17 16 15 15 15 16 16 16 15 15 15 14 14 13 13 13 13 13 12 11 10 12 13 15 17 18 17 16 15 14 14 14 15 14 12 12 13 14 14 13 11 10 10 10 11 12 12 12 12 11 10 12 12 10 10 10 10 10 9 9 9 10 11 11 11
20 21 22 22 23 23 23 21 21 23 23 22 21 20 19 19 19 18 17 17 16 15 14 14 15 15 16 16 15 15 15 14 14 13 13 13 13 13 11 10 9 11 13 14 15 16 16 15 15 14 13 13 15 15 13 12 14 15 15 13 11 10 10 10 11 12 12 12 11 11 10 11 11 10 10 10 10 9 8 9 9 10 11 11 11
19 20 21 22 23 23 23 23 22 23 23 22 22 21 19 19 19 18 17 16 15 13 14 14 14 15 15 15 15 15 15 15 14 13 13 12 13 12 10 9 8 9 11 13 13 14 14 14 14 14 13 13 14 15 14 13 14 16 15 13 12 10 9 10 11 12 12 12 11 11 10 10 9 9 10 10 9 9 9 9 9 10 11 10 10
21 20 21 22 24 24 24 24 24 23 24 23 22 21 20 20 19 18 17 16 15 14 14 14 15 15 15 15 14 15 15 15 14 13 13 12 12 11 10 9 8 8 9 11 12 12 12 12 13 13 13 13 14 14 14 14 15 16 16 14 12 10 10 10 11 12 12 12 12 10 9 9 8 8 9 9 10 10 9 9 9 9 9 9 9
21 22 23 24 26 26 25 25 25 25 25 23 22 21 21 21 20 19 18 16 16 16 15 15 15 15 15 14 14 13 14 13 12 12 12 12 12 11 10 9 8 9 8 9 11 11 10 11 12 12 13 13 14 14 13 13 15 16 16 14 12 11 10 11 11 11 11 12 12 11 9 9 8 8 8 8 10 10 9 8 8 8 8 9 9
25 26 26 26 26 26 26 25 25 26 25 24 23 22 22 21 21 19 18 17 17 17 16 15 15 15 14 14 14 13 13 11 11 11 11 12 12 11 11 10 9 9 8 8 9 9 9 10 11 12 12 14 14 13 12 13 15 16 16 15 12 11 11 11 11 11 11 12 12 11 9 9 8 7 6 7 10 10 9 7 7 7 8 9 9
30 29 27 27 27 27 27 26 26 27 26 25 24 23 22 21 21 19 18 18 18 17 15 15 15 15 15 14 14 13 13 12 11 11 11 12 13 12 11 10 10 9 8 8 9 9 8 9 11 12 12 14 14 13 12 13 15 17 16 15 12 11 11 11 10 10 11 12 12 11 8 9 8 6 6 7 9 9 8 7 7 7 8 9 9
32 30 30 30 30 29 28 28 28 28 27 26 24 22 21 21 21 20 19 18 18 17 15 15 14 14 15 15 15 14 13 13 11 10 10 12 13 12 11 10 9 9 8 8 9 8 8 9 11 12 13 14 14 12 11 13 16 18 16 14 12 11 11 10 9 9 11 12 12 11 8 9 8 4 5 7 8 9 8 9 9 8 8 8 9
27 26 28 29 29 30 29 30 30 29 28 27 25 23 22 22 21 20 19 18 17 16 15 15 14 15 15 15 15 14 14 13 12 10 9 10 11 11 10 9 9 9 8 8 8 8 9 10 11 11 12 13 14 12 11 12 15 17 16 14 12 11 10 9 8 9 11 12 10 8 7 8 5 2 6 8 8 9 8 9 11 11 9 9 9
20 20 23 25 28 29 29 31 31 30 29 28 26 24 24 22 21 20 18 18 17 15 15 15 15 15 14 15 15 14 13 13 11 10 9 9 10 10 10 10 9 9 8 8 7 8 8 9 9 10 10 11 12 11 10 11 13 15 15 14 12 10 9 7 8 10 11 10 9 7 7 7 4 3 7 9 9 8 7 8 11 12 10 9 8
20 21 22 22 27 28 28 30 29 30 30 28 26 25 25 23 21 20 18 18 16 14 14 15 15 14 14 14 13 12 12 12 11 10 9 9 9 9 10 10 9 8 8 7 6 6 7 8 8 8 8 9 10 10 9 10 11 13 14 14 12 10 8 8 9 10 10 9 9 8 7 6 5 6 8 9 9 6 5 5 9 12 11 9 9
21 24 24 22 25 27 26 27 27 28 29 27 27 27 26 23 21 19 18 18 14 11 12 14 15 14 15 14 12 11 11 10 9 8 8 8 8 8 9 9 8 7 6 6 6 5 6 6 7 7 7 8 9 9 9 9 11 12 13 14 13 10 9 9 10 10 10 9 10 9 8 7 7 8 8 8 7 6 4 4 7 10 9 9 9
20 23 25 22 22 25 25 25 27 27 27 27 27 27 25 23 20 18 17 15 12 12 12 14 15 15 15 13 11 10 8 7 5 5 6 6 7 8 8 8 6 6 5 4 5 4 5 5 6 6 7 8 9 9 8 9 11 12 13 13 12 11 10 10 10 10 10 10 11 11 10 8 8 8 7 6 6 7 6 4 6 8 8 9 9
20 20 22 23 22 23 25 26 26 27 28 27 26 27 24 22 20 17 15 11 12 15 15 15 16 15 14 12 10 8 6 5 4 4 5 6 6 6 7 6 5 4 4 3 4 4 4 5 5 6 7 8 9 9 9 9 11 12 13 14 13 11 10 10 11 11 11 11 12 12 11 9 7 7 6 5 5 6 6 6 6 7 9 10 10
21 19 19 24 24 23 26 26 27 28 28 27 26 25 22 20 19 16 14 12 15 18 16 15 14 14 13 10 9 7 5 5 5 4 5 6 6 6 6 5 3 3 3 3 3 3 3 4 5 6 7 8 9 10 10 9 10 12 13 13 13 12 11 11 10 10 11 10 11 11 10 9 7 6 5 4 3 3 4 5 5 6 8 9 9
22 20 20 24 26 25 27 26 27 28 27 26 26 23 20 19 18 16 14 14 18 17 14 14 12 11 10 10 8 7 6 6 5 5 6 7 7 6 6 5 4 3 3 3 3 3 3 4 5 7 8 9 10 11 10 10 11 12 14 14 14 12 11 11 10 9 10 9 9 8 8 7 5 5 4 3 2 2 3 3 5 6 6 6 5
22 23 23 24 25 26 26 27 28 28 27 26 24 22 20 20 18 17 16 17 18 15 14 14 13 10 9 9 8 6 6 6 5 5 6 7 8 7 7 6 4 4 4 4 3 3 3 4 5 6 9 10 10 11 10 10 12 13 15 14 13 13 11 10 9 9 9 8 7 7 6 5 4 4 4 3 1 2 3 4 5 5 4 3 3
22 24 24 23 23 25 25 27 28 27 26 26 24 22 20 20 18 18 18 18 17 14 14 14 12 12 10 8 7 6 7 6 6 6 6 7 8 8 7 5 4 4 5 5 4 3 3 5 6 6 9 11 12 11 11 12 13 14 15 12 10 12 10 8 9 9 8 7 7 6 6 5 4 4 4 3 1 2 4 5 5 4 5 4 4
22 25 24 23 23 24 24 26 28 27 26 26 24 22 20 20 18 18 19 18 16 14 14 13 12 12 11 8 7 7 7 7 7 6 6 7 7 7 5 5 5 5 5 6 5 4 3 6 8 7 8 11 13 13 13 13 13 13 13 10 9 10 8 7 8 8 7 7 6 6 6 5 5 4 4 3 2 0 2 3 4 5 5 5 7
22 24 24 24 25 24 23 25 27 27 26 25 22 21 19 19 19 19 18 17 15 14 13 13 13 12 10 9 8 8 7 7 7 6 6 7 7 6 6 6 5 5 6 7 6 5 5 6 9 10 10 12 14 15 14 14 13 12 11 10 9 8 6 6 7 7 6 6 6 6 6 5 5 4 4 3 2 1 1 3 4 4 5 5 6
22 22 23 24 24 25 24 24 27 27 25 24 21 19 18 19 19 19 17 16 15 15 14 14 13 11 10 9 9 9 8 7 8 7 7 7 7 7 7 7 6 5 7 7 7 7 7 8 10 12 13 13 14 16 15 14 13 12 10 9 7 7 6 6 6 6 6 5 5 5 5 5 4 3 3 2 2 2 2 4 4 5 5 5 6
22 22 21 23 23 25 25 22 25 27 24 22 20 19 18 19 19 19 18 17 16 16 15 13 12 10 9 9 9 8 8 8 8 8 8 8 8 8 8 7 6 6 7 7 8 8 8 10 11 13 15 15 15 16 15 15 15 13 10 9 7 7 6 7 7 7 6 6 6 5 4 4 3 2 2 1 2 3 4 5 5 5 6 6 7
20 21 20 22 23 24 24 20 22 25 24 22 21 20 20 20 19 20 19 18 17 16 15 13 11 10 8 9 9 8 7 8 8 8 9 9 9 9 9 8 7 7 7 7 8 9 9 10 11 14 17 19 18 16 16 18 17 14 11 10 11 10 8 8 8 8 8 8 7 5 4 4 3 2 1 2 5 6 7 7 6 6 6 7 7
20 21 20 22 23 23 23 20 20 22 22 23 23 22 21 21 20 20 20 18 16 16 15 13 11 9 8 9 9 8 8 8 8 8 8 9 10 10 9 8 7 7 8 8 9 10 10 11 14 17 18 20 19 18 19 18 14 12 13 11 11 11 10 10 10 10 9 9 8 7 6 5 4 3 3 5 8 8 9 10 9 7 7 7 7
20 21 20 22 23 22 22 21 20 20 20 21 23 24 22 21 20 19 18 17 15 14 13 12 10 9 9 9 9 9 8 7 7 7 7 8 9 9 8 7 8 8 9 10 10 11 11 12 15 18 20 20 18 19 19 14 13 14 13 7 4 6 8 9 12 12 9 9 9 9 8 7 7 6 6 8 8 9 10 10 9 8 8 8 8
19 21 21 22 22 23 23 22 22 22 21 20 22 23 21 19 18 17 16 15 14 13 12 10 10 9 9 9 8 7 7 6 6 6 7 7 7 7 6 8 9 9 10 11 11 12 13 15 16 18 22 21 19 18 15 13 17 16 8 4 2 2 2 5 12 13 10 10 10 10 9 9 9 8 9 9 8 9 10 9 8 9 9 9 9
19 21 23 22 22 23 22 21 23 24 23 21 21 21 20 19 17 15 14 13 12 12 11 10 10 9 9 8 7 6 6 6 6 6 7 7 7 7 7 8 10 11 11 11 12 12 14 16 18 20 22 23 22 17 12 14 17 12 7 5 3 1 1 4 9 10 9 10 10 9 9 9 9 10 10 9 10 11 10 9 9 9 9 10 10
19 21 22 22 21 22 22 21 23 24 24 22 21 21 21 20 19 19 17 15 14 12 12 11 11 10 9 8 7 7 7 7 7 7 7 7 7 8 8 9 10 11 12 12 12 13 15 17 18 21 22 23 24 19 15 18 16 9 9 8 2 3 8 8 5 5 8 10 10 9 9 9 10 10 11 12 12 11 9 9 9 10 10 10 9
18 20 21 20 21 22 22 22 23 24 24 23 21 21 21 20 20 21 19 17 16 14 12 11 11 10 9 9 9 8 8 8 8 7 7 6 6 8 9 9 11 12 12 13 13 14 15 17 19 21 21 21 23 20 18 20 16 9 9 7 2 8 18 13 6 5 5 6 8 10 10 10 11 12 13 13 12 10 9 9 10 10 10 10 10
18 20 19 19 21 22 22 23 24 24 23 23 22 21 21 20 19 19 18 16 15 14 12 11 11 10 10 10 9 9 9 8 8 7 7 6 6 8 9 9 10 11 12 13 13 13 15 17 18 19 19 19 20 19 18 20 18 11 9 6 3 12 18 14 13 14 6 3 5 8 9 10 11 12 13 12 10 9 9 9 10 10 11 11 11
19 19 18 18 20 21 23 23 24 24 23 23 22 20 20 20 19 18 16 15 14 13 12 12 11 10 10 10 10 10 9 9 8 7 7 7 7 7 8 9 10 10 11 11 12 13 14 16 17 17 17 16 16 16 16 20 18 11 8 6 7 14 14 9 15 17 9 6 5 4 8 10 9 10 11 10 9 9 9 10 10 11 11 12 13
19 19 18 19 21 22 23 24 24 23 23 22 21 20 19 19 19 18 16 15 14 13 13 13 12 12 11 12 11 11 10 9 9 8 7 7 7 7 8 8 9 9 10 10 11 13 14 15 16 16 16 15 15 14 14 17 16 11 9 8 9 14 11 7 11 14 10 8 6 6 9 9 7 7 8 8 8 9 9 9 10 11 11 13 13
18 19 19 20 22 22 22 23 23 22 23 22 21 19 18 18 19 18 16 15 15 15 15 14 14 13 13 13 13 12 11 10 9 8 8 7 6 6 7 8 8 9 10 10 11 12 12 13 14 14 14 13 13 13 13 15 16 14 11 11 11 14 13 11 14 16 13 10 8 7 8 9 8 7 7 6 7 9 8 9 10 11 11 13 13
Wind_Direction
157 157 157 154 152 148 146 143 140 138 134 131 128 128 130 131 129 127 128 128 131 133 132 132 133 132 131 130 130 131 132 129 125 124 123 122 121 122 120 118 118 120 121 120 119 117 115 113 113 110 111 112 108 105 100 97 98 95 93 92 89 88 87 87 89 92 91 92 89 80 81 91 92 90 91 89 85 82 79 77 78 78 78 81 84
156 156 157 154 153 149 147 144 141 137 131 128 125 126 127 131 132 129 128 128 129 131 131 131 132 131 130 131 132 132 130 126 124 123 123 122 121 121 120 119 118 118 119 119 118 117 117 117 115 113 112 111 109 105 103 100 98 95 93 90 89 93 92 90 91 94 97 97 91 83 79 85 89 88 88 87 85 82 80 77 76 75 75 79 81
149 153 156 154 153 149 148 145 142 136 130 126 124 124 125 127 128 129 129 129 130 129 130 130 129 129 130 131 131 129 127 125 124 124 123 122 121 121 120 120 120 118 118 119 119 119 118 117 116 114 111 109 109 108 107 104 101 98 94 89 88 95 96 94 96 101 105 104 99 96 89 84 82 85 86 84 84 82 78 76 72 70 72 75 77
147 151 154 154 153 149 148 147 144 139 133 128 125 123 123 125 123 126 129 129 129 128 129 128 127 128 127 128 126 126 126 125 124 122 122 122 123 123 121 120 121 120 120 120 119 120 117 116 115 115 112 110 110 110 110 108 104 99 94 90 88 92 96 94 97 105 108 107 104 102 97 89 85 86 86 84 83 81 78 76 75 74 73 72 73
146 150 154 153 151 149 149 149 147 142 138 132 128 125 122 123 123 125 126 128 128 127 128 127 127 128 127 127 126 126 126 126 125 122 121 122 124 123 121 121 121 120 121 121 120 120 118 116 116 115 112 111 111 112 113 112 108 102 93 89 87 89 96 99 100 106 108 107 105 104 101 92 89 91 89 87 84 82 80 77 78 76 75 75 74
147 151 155 154 150 149 149 151 150 145 141 135 130 126 122 122 123 124 125 127 129 129 128 129 129 129 129 128 128 128 128 129 129 127 124 123 125 124 122 122 123 123 122 122 121 120 119 118 118 116 114 113 113 113 116 118 116 109 97 88 87 88 95 104 109 111 110 107 104 103 101 94 92 96 96 93 86 84 82 77 75 72 75 85 86
148 150 154 154 150 149 151 153 152 147 143 138 131 126 124 125 124 124 127 127 128 129 128 129 130 130 129 129 130 129 130 131 133 130 126 125 125 125 124 124 125 125 124 124 123 123 121 119 119 118 117 116 114 115 116 118 119 113 103 94 92 92 94 105 114 113 110 108 105 102 100 97 97 99 99 98 92 87 84 80 81 83 83 88 92
147 151 154 153 150 150 152 154 154 150 145 140 133 127 126 127 127 129 131 130 130 130 131 130 129 132 131 132 133 130 129 130 130 128 127 127 127 127 126 126 127 125 125 127 126 124 123 121 120 119 119 117 115 117 118 120 123 119 112 107 100 96 96 104 111 110 110 109 106 104 101 100 102 99 98 100 97 93 93 90 87 88 86 83 87
148 152 154 153 150 151 153 156 157 153 147 141 134 130 129 129 131 132 134 133 131 132 135 133 131 134 133 135 137 134 131 129 129 130 131 130 130 130 128 126 126 126 127 130 130 127 126 124 123 123 121 118 118 121 123 128 129 121 115 116 112 101 100 104 104 106 113 111 105 104 101 99 98 94 94 100 100 99 102 97 87 84 82 77 78
149 152 154 153 152 153 155 157 158 155 148 141 135 131 133 133 133 134 134 134 132 134 137 135 134 134 135 140 142 139 136 135 136 135 134 134 135 133 131 128 125 127 129 131 131 130 130 127 126 125 123 119 118 120 125 131 122 112 112 120 124 111 104 103 100 107 114 110 106 104 100 97 96 93 93 96 98 99 98 92 89 87 84 79 78
148 152 153 154 154 155 156 158 158 155 150 142 136 133 136 137 136 137 136 135 135 137 138 136 135 134 140 144 144 142 140 141 141 140 139 140 141 138 136 133 126 125 130 134 133 135 135 129 128 127 124 120 118 119 122 123 111 105 111 118 123 114 104 102 103 113 116 111 109 109 106 103 99 96 94 94 94 94 92 88 88 87 87 85 82
148 151 153 154 153 155 156 157 157 153 149 142 136 135 140 140 140 142 139 138 139 141 140 137 137 138 143 145 144 145 144 143 143 143 143 144 145 145 142 138 130 124 130 137 138 138 138 132 130 129 125 122 118 118 120 115 109 109 111 114 115 108 103 101 104 115 119 117 117 117 115 106 98 98 98 98 96 94 93 91 90 88 89 90 88
149 152 152 152 152 155 156 156 155 152 148 141 136 137 144 144 143 144 140 140 142 144 143 141 142 142 145 147 147 147 146 145 144 145 146 147 148 150 147 142 135 127 129 137 141 139 137 134 131 129 125 121 115 115 116 111 112 116 114 112 112 106 101 99 103 114 121 124 121 120 116 105 100 102 101 100 99 99 97 95 92 88 88 89 90
149 153 152 153 153 154 156 155 154 152 149 142 139 140 145 146 145 144 141 141 142 145 146 146 148 148 150 152 152 150 148 147 148 148 149 150 151 151 149 142 135 129 129 136 143 141 139 136 132 129 125 120 114 113 114 114 119 121 118 113 110 105 100 99 102 109 118 124 118 114 112 107 106 103 100 101 99 97 96 96 91 89 89 89 89
150 153 153 153 152 153 155 155 154 152 148 143 143 144 145 146 145 143 141 141 141 143 144 146 149 151 153 154 156 154 151 150 149 150 151 153 153 150 146 141 135 129 128 133 141 144 141 136 131 129 126 121 114 111 113 119 125 126 124 115 109 105 99 98 102 106 113 120 118 117 115 109 107 105 102 101 98 96 96 97 94 92 92 90 90
151 153 154 152 150 152 154 154 154 152 148 146 147 145 145 147 145 144 143 144 142 141 142 143 145 148 152 154 157 157 155 153 152 152 153 153 151 145 141 139 133 127 127 131 137 142 140 136 133 131 128 124 117 112 113 122 132 133 129 119 111 108 101 97 100 105 110 115 117 118 114 103 100 101 100 96 98 98 97 96 94 93 93 93 92
149 152 153 152 151 152 154 155 155 152 150 150 151 148 148 150 148 147 147 146 144 143 143 144 145 145 148 152 154 156 157 156 155 153 152 149 144 138 136 134 130 125 125 131 137 142 141 138 136 133 129 124 120 117 115 123 134 138 135 125 115 112 107 100 100 105 110 112 110 109 108 106 104 104 102 100 99 97 95 93 92 94 94 93 91
149 153 154 155 154 153 155 156 157 153 152 154 155 153 152 153 151 151 152 149 146 147 147 148 148 145 144 146 147 150 152 153 153 151 149 145 139 136 134 133 132 125 122 129 138 144 143 140 137 134 130 124 122 120 119 125 135 142 140 131 121 118 112 104 103 106 109 110 107 103 102 109 111 106 104 104 102 97 94 90 89 90 88 87 88
150 154 155 158 156 154 156 158 162 157 156 159 159 158 156 155 153 154 154 150 147 149 150 151 151 146 145 145 144 144 144 145 146 144 144 141 136 135 134 136 136 127 121 126 136 144 145 142 139 135 131 125 123 121 120 124 135 143 143 136 129 125 117 108 107 108 111 112 108 102 97 103 106 103 101 102 101 96 93 90 88 89 87 86 86
150 154 156 159 157 156 157 161 166 161 161 163 161 161 159 156 154 156 156 150 150 150 151 153 155 152 150 148 145 144 142 141 141 140 140 140 137 134 135 140 137 126 121 124 132 144 148 146 143 139 133 128 124 122 119 122 133 142 144 141 137 131 121 112 109 110 114 114 110 104 96 94 96 98 98 95 97 97 94 90 86 90 90 86 84
150 155 157 160 161 161 163 165 167 166 167 166 164 164 161 159 156 158 157 152 153 153 152 154 158 157 156 155 151 148 145 144 142 140 140 139 137 136 138 140 135 125 120 123 130 140 147 147 145 141 136 132 127 122 120 122 130 140 145 147 143 135 125 116 113 113 117 118 114 109 102 96 89 86 87 82 79 86 88 85 81 82 85 86 87
151 155 159 165 168 168 169 169 169 171 171 168 167 165 162 161 159 159 157 155 155 155 156 157 159 160 161 163 159 153 149 148 146 142 140 137 136 137 139 139 133 124 118 120 126 132 142 146 145 141 137 135 130 124 122 125 133 141 147 150 148 140 131 122 116 114 118 121 119 116 109 103 94 83 85 77 65 69 75 82 85 81 82 84 84
153 159 166 171 173 172 172 172 172 174 173 170 169 166 166 164 161 160 158 157 156 157 158 159 160 162 166 168 166 160 155 150 145 140 137 135 133 134 135 134 128 121 118 118 122 128 136 144 146 141 137 135 131 126 124 130 140 147 150 154 153 146 136 127 119 116 119 121 122 118 107 106 102 91 94 80 62 62 66 75 85 87 86 82 81
164 168 173 173 173 172 173 174 174 175 175 171 169 168 168 166 161 160 159 158 157 159 161 161 161 162 165 168 169 165 157 149 142 140 139 137 134 135 135 132 129 124 123 120 122 127 134 141 142 141 138 134 130 127 126 133 145 151 154 157 158 150 139 129 123 120 121 122 122 117 108 110 110 103 106 82 61 59 64 73 80 84 85 79 78
169 171 174 173 174 174 174 176 176 177 176 173 171 170 169 165 162 160 160 160 160 160 163 165 161 162 163 165 168 162 158 153 150 152 148 144 141 142 140 135 132 127 127 127 126 129 135 136 137 140 138 133 130 128 127 132 145 153 156 160 161 152 140 132 128 125 125 124 125 124 113 110 113 109 110 84 62 58 62 72 73 76 82 81 79
171 173 173 173 177 177 175 176 178 178 177 175 172 171 169 165 164 163 162 163 163 162 166 167 161 162 163 165 166 162 163 161 159 162 154 147 145 143 138 134 134 130 130 132 129 127 130 130 132 137 136 134 132 129 128 131 143 151 157 162 161 152 141 135 135 132 130 127 129 134 120 110 117 117 106 89 64 59 63 66 61 63 74 76 76
173 174 172 172 177 178 176 176 178 177 176 176 173 170 169 167 167 166 166 166 164 164 166 166 162 164 165 167 168 165 166 163 163 166 158 147 142 139 135 134 135 132 129 130 128 123 121 122 127 131 131 133 132 131 130 130 141 150 155 161 160 152 145 141 144 140 135 131 133 140 129 121 126 111 101 92 67 59 64 65 57 57 68 72 72
173 173 171 170 176 179 177 176 177 175 175 175 174 171 169 169 170 169 169 166 165 165 165 165 164 165 169 172 172 171 168 165 165 166 160 150 143 140 136 136 136 133 133 131 126 121 116 114 119 123 122 128 133 137 137 132 140 148 152 157 159 156 151 152 153 148 141 139 142 144 138 130 114 89 93 78 62 62 74 76 64 60 65 73 79
176 175 174 171 176 182 178 176 176 175 175 174 174 171 170 171 170 170 167 163 161 163 166 168 166 168 176 178 176 175 171 168 166 164 159 155 152 147 141 141 141 140 139 133 123 118 114 110 111 115 114 120 133 143 147 140 139 147 153 156 161 161 160 164 160 153 150 153 154 148 139 123 91 86 90 77 67 70 79 83 71 63 63 73 82
177 174 178 175 174 180 179 178 178 177 175 174 174 171 170 171 169 170 169 163 161 166 174 175 173 176 180 179 179 178 174 168 164 165 166 165 162 152 144 143 145 142 134 127 120 114 113 111 108 109 111 117 130 144 154 147 139 147 156 161 164 164 167 169 163 158 156 158 157 149 140 119 92 85 86 82 76 71 69 79 73 62 61 73 78
175 172 180 179 172 176 178 180 180 179 178 176 175 172 171 169 166 171 173 169 170 178 188 186 181 182 181 180 181 179 175 170 169 175 180 182 173 158 150 150 153 145 130 122 120 117 119 118 110 106 111 119 129 141 155 150 139 145 157 164 166 167 172 171 164 159 154 150 149 147 140 122 102 92 88 82 73 70 73 81 75 64 63 73 78
175 169 176 183 180 176 178 184 184 182 182 179 176 172 170 168 169 175 178 176 177 182 194 198 189 183 183 183 180 176 176 187 194 191 196 200 189 172 164 162 164 157 146 134 128 130 130 126 117 110 115 127 135 143 156 154 142 146 157 164 168 170 171 170 166 159 152 147 144 144 139 130 120 116 111 94 79 76 81 90 84 70 71 76 80
180 174 174 183 186 183 182 186 187 185 185 181 177 173 172 173 175 182 186 185 183 187 197 203 195 183 183 188 184 177 186 211 211 206 214 214 209 195 183 178 185 183 171 158 143 140 135 132 125 118 126 139 147 150 156 158 150 150 157 164 169 169 168 168 166 162 158 151 146 144 140 136 133 136 136 125 115 111 111 119 111 88 86 90 87
179 181 180 184 186 187 185 186 186 186 186 184 179 178 181 181 181 187 192 189 185 190 198 201 200 190 187 193 192 187 200 218 216 216 221 220 222 215 212 216 226 224 192 177 157 146 142 141 134 129 136 151 160 159 164 166 156 156 162 167 166 160 164 163 159 165 166 157 152 150 145 142 140 143 149 154 156 139 132 129 112 95 92 95 92
175 182 185 187 188 187 185 185 185 185 187 186 181 183 188 185 185 190 192 190 187 191 196 195 197 201 204 200 193 195 206 215 214 218 221 220 225 227 229 224 223 221 196 179 166 154 150 154 152 143 144 159 168 166 175 171 159 163 164 165 160 151 154 156 156 169 166 154 156 155 146 138 130 134 144 167 184 76 80 78 78 72 61 63 57
177 184 186 186 188 188 185 185 185 186 188 185 185 192 195 189 189 192 190 189 188 190 195 197 199 209 218 209 197 200 206 210 211 216 221 219 227 234 226 202 193 204 193 178 170 164 164 162 158 159 156 162 170 171 172 165 158 160 156 158 158 145 144 148 152 159 151 147 151 142 136 130 120 125 133 156 189 40 53 50 44 35 21 17 17
184 186 186 184 186 188 186 186 186 188 188 186 191 198 199 193 193 193 189 188 188 191 194 199 206 215 221 213 205 208 208 208 208 216 220 214 223 225 205 181 181 193 191 181 176 171 176 171 160 166 170 165 172 172 161 155 154 150 147 160 162 141 137 140 141 143 137 140 140 129 130 127 121 123 123 147 175 9 23 22 21 25 21 8 7
188 187 187 187 187 188 188 189 188 188 188 191 195 199 198 194 192 191 188 186 188 192 196 202 209 216 220 219 217 213 211 209 208 216 215 207 212 205 186 185 186 184 185 182 180 165 163 179 166 164 173 170 172 171 158 149 146 140 142 159 154 136 134 138 138 139 136 136 136 132 129 123 122 125 122 133 137 90 35 26 24 26 29 21 11
187 187 187 186 186 188 191 191 189 188 189 192 194 194 193 190 188 188 188 189 192 195 199 204 209 216 222 223 221 215 212 211 208 214 212 205 205 198 187 189 189 181 182 180 178 167 161 177 174 163 164 166 169 167 157 146 138 136 143 146 135 127 129 134 141 143 138 135 138 138 135 130 127 122 113 102 79 69 75 60 51 46 45 44 35
187 187 187 186 184 188 192 189 187 187 185 187 188 187 187 186 186 187 189 192 196 200 202 206 212 219 223 219 214 212 211 209 208 213 215 207 201 201 193 188 188 185 186 184 177 172 167 173 174 162 155 155 159 162 158 148 137 130 133 129 118 115 117 118 121 121 120 124 131 143 152 147 144 139 122 73 45 78 99 79 61 65 59 51 47
187 187 185 187 187 189 192 185 182 185 185 184 185 184 184 182 183 187 191 194 198 202 203 208 214 214 211 207 204 205 205 206 209 215 220 213 205 203 196 189 190 186 190 192 181 174 170 170 166 156 151 150 151 156 156 147 135 125 120 112 99 95 100 107 104 95 99 112 120 126 133 140 147 143 83 53 64 76 83 72 64 73 66 52 48
185 186 182 185 190 192 191 183 178 183 188 190 190 189 188 186 184 187 191 193 197 200 203 207 208 201 197 198 198 199 202 208 212 216 218 215 210 203 192 192 194 185 186 193 185 174 171 173 164 152 148 150 151 154 153 147 138 133 126 111 91 83 86 95 95 85 85 100 107 102 102 116 123 109 78 77 84 81 76 74 72 70 64 55 52
182 185 181 181 187 189 188 183 179 183 187 190 190 190 190 189 188 187 188 189 191 195 200 202 197 192 194 196 201 202 202 208 212 213 212 212 215 205 189 194 199 189 187 189 185 179 175 177 171 159 149 148 151 155 157 154 146 139 125 111 97 82 77 78 80 78 82 91 93 94 97 106 111 108 99 91 90 85 81 79 71 65 65 63 65
177 181 181 182 182 183 185 185 186 188 187 184 184 185 185 187 188 186 186 186 187 189 190 191 189 192 193 195 206 208 201 204 205 207 211 210 210 203 194 199 201 194 190 189 186 183 180 179 176 169 158 149 149 156 168 170 153 143 120 88 114 108 84 80 76 70 79 92 87 90 98 104 107 108 107 99 91 87 84 79 68 66 71 70 71
175 180 182 182 180 181 184 185 185 185 184 180 180 181 180 179 177 173 174 176 177 182 183 183 186 190 193 196 205 204 198 201 201 201 207 206 198 193 196 201 200 193 188 190 187 181 181 183 179 176 169 160 157 158 173 178 164 156 145 130 120 96 187 139 98 71 74 94 93 92 94 98 104 107 108 103 98 93 85 74 69 72 73 71 71
178 182 184 183 180 181 183 182 180 181 183 181 179 180 178 176 171 166 167 168 170 178 184 182 184 186 187 191 192 189 189 189 193 196 196 199 195 189 192 197 197 191 185 186 186 180 181 185 184 181 178 171 167 163 166 175 175 172 163 157 161 173 160 148 116 68 78 93 97 95 93 96 103 107 109 107 100 93 80 69 72 77 77 74 75
178 181 183 184 184 185 185 180 177 179 181 180 179 181 179 176 174 173 173 173 172 177 182 181 181 181 177 179 177 173 176 177 181 187 185 188 190 187 189 193 192 189 185 185 186 183 182 187 188 186 185 180 176 171 167 174 179 180 175 172 185 166 159 151 145 140 105 91 97 98 101 108 113 114 114 110 101 87 77 78 82 83 84 83 83
177 178 179 183 186 188 186 181 178 178 179 179 180 182 180 177 176 177 176 179 179 176 177 178 177 175 171 169 165 163 166 168 171 173 171 174 180 183 185 188 192 192 189 188 189 188 187 189 191 191 194 191 187 183 179 182 185 182 173 167 156 164 163 159 156 149 129 104 106 97 105 117 121 120 117 110 98 85 83 89 93 91 92 93 91
176 177 176 180 185 187 185 181 179 179 179 181 182 182 183 179 177 178 179 181 183 176 173 175 172 170 166 161 159 158 159 159 159 157 154 157 161 169 179 187 196 199 196 193 192 193 192 193 193 193 197 197 197 199 196 193 191 180 166 159 149 157 160 158 154 145 127 131 140 122 122 121 118 117 117 113 98 88 89 93 100 102 101 100 98
174 175 176 181 185 185 183 180 180 181 181 182 182 181 183 182 179 182 182 182 182 178 174 173 170 165 160 155 152 150 149 148 148 146 145 146 150 159 170 181 192 198 200 195 191 194 196 197 197 196 198 201 203 209 211 206 198 184 180 183 161 156 154 147 150 144 126 117 127 148 147 134 125 118 119 121 107 95 94 98 105 108 108 107 104
170 173 178 184 186 185 182 178 179 181 181 181 182 181 183 184 183 184 185 183 182 179 176 174 170 163 156 151 148 145 143 143 142 141 140 139 142 151 164 175 182 189 194 193 189 191 194 195 196 196 199 203 206 209 212 211 202 190 194 203 191 180 179 181 171 155 140 127 127 143 144 131 127 126 130 134 118 104 99 106 114 113 114 113 109